GAOFEN 13

导读 | 星芒AI

高分十三号(GAOFEN-13)卫星是中国高分辨率对地观测系统的重要组成部分,于2021年发射。该卫星主要用于国土监测、环境评估、灾害预警等领域,具备高精度、高分辨率的遥感成像能力。GAOFEN-13运行在地球同步轨道,能够实现对特定区域的持续观测,提升中国在气象、农业、海洋等领域的数据获取能力,为国家资源管理和应急响应提供有力支持。

基本信息
目录编号:
46610
目录名称:
GAOFEN 13
国际标识:
2020-071A
轨道中心:
EARTH
卫星名称:
GAOFEN 13
卫星全名:
--
卫星状态:
在轨 (已飞行1891 天)
发射日期:
2020-10-11 UTC
国别 :
中国 (CN)
星等 :
--
轨道信息
数据来源 国际轨道数据 AOE轨道数据
星历时间 2025-12-15T06:32:24+0800
20小时前
查看轨道信息
2025-12-15T04:00:00+0800
22小时前
查看轨道信息
半长轴 42166.27km 42166.27km
偏心率 0.0042276 0.0042257
轨道倾角 0.050° 0.050°
近地点辐角 122.008° 122.404°
升交点赤经 79.639° 79.277°
平近点角 338.437° 300.201°
近地点 35609.872km 35609.952km
远地点 35966.398km 35966.318km
周期 1436.175分钟 1436.175分钟
每日圈数 1.002663 1.002663
详细信息
使用方式:
暂无
2D轨道图
3D轨道图
轨道高度分析图
轨道倾角分析图
轨道综合分析图
查看轨道综合分析图